Location: NJAA Observatory
(40.6819°N, 74.8979°W)
Time: 16:18:07
(UTC-04:00)

Iridium 84 - Visible Passes

Search period start: 01 September 2015 00:00
Search period end: 11 September 2015 00:00
Orbit: 776 x 779 km, 86.4° (Epoch: 01 September)

Date Brightness Start Highest point End Pass type
(mag) Time Alt. Az. Time Alt. Az. Time Alt. Az.
01 Sep 5.6 19:59:22 10° S 20:04:35 86° W 20:09:50 10° N visible
02 Sep 8.4 21:08:39 10° WSW 21:12:16 18° WNW 21:15:41 10° NNW visible
03 Sep 9.1 05:58:06 10° NE 06:00:30 14° ENE 06:03:11 10° ESE visible
03 Sep 7.5 20:33:44 10° SW 20:38:24 32° W 20:43:02 10° NNW visible
04 Sep 6.3 19:59:35 10° SSW 20:04:43 59° W 20:09:53 10° N visible
05 Sep 8.8 21:10:22 10° W 21:12:40 12° WNW 21:14:38 10° NW visible
06 Sep 8.7 05:57:13 10° NNE 06:00:52 20° ENE 06:04:41 10° ESE visible
06 Sep 8.2 20:34:34 10° SW 20:38:41 23° WNW 20:42:42 10° NNW visible
07 Sep 9.4 05:26:12 10° ENE 05:26:52 10° ENE 05:27:54 10° E visible
07 Sep 7.1 20:00:00 10° SSW 20:04:54 41° W 20:09:48 10° NNW visible
09 Sep 8.0 05:56:47 10° NNE 06:01:11 28° ENE 06:05:40 10° SE visible
09 Sep 8.7 20:35:48 10° WSW 20:39:02 16° WNW 20:42:04 10° NW visible
10 Sep 8.8 05:24:21 10° NE 05:27:17 15° ENE 05:30:27 10° ESE visible
10 Sep 7.9 20:00:38 10° SW 20:05:08 28° WNW 20:09:35 10° NNW visible
